• In Germany
  • List of Countries
  • For 7 days
  • Water Temperature
  • Satellite Maps
  • Weather Map
  • Weather Widgets
  • user-avatar
    Login

    Hourly Weather Marijampole

    Today, 26 September, Tuesday

    Time Temperature Precipitation Wind Pressure Humidity
    00:00 +12°C° 0 mm 3 mps 768 mmHg 82%
    01:00 +12°C° 0 mm 3 mps 768 mmHg 83%
    02:00 +11°C° 0 mm 3 mps 768 mmHg 86%
    03:00 +11°C° 0 mm 3 mps 768 mmHg 87%
    04:00 +11°C° 0 mm 3 mps 768 mmHg 89%
    05:00 +10°C° 0 mm 3 mps 768 mmHg 91%
    06:00 +11°C° 0 mm 3 mps 768 mmHg 88%
    07:00 +11°C° 0 mm 3 mps 768 mmHg 86%
    08:00 +12°C° 0 mm 4 mps 768 mmHg 83%
    09:00 +13°C° 0 mm 4 mps 768 mmHg 78%
    10:00 +15°C° 0 mm 4 mps 769 mmHg 73%
    11:00 +18°C° 0 mm 4 mps 769 mmHg 67%
    12:00 +18°C° 0 mm 4 mps 769 mmHg 64%
    13:00 +19°C° 0 mm 4 mps 769 mmHg 60%
    14:00 +20°C° 0 mm 4 mps 769 mmHg 57%
    15:00 +20°C° 0 mm 4 mps 769 mmHg 61%
    16:00 +19°C° 0 mm 3 mps 769 mmHg 64%
    17:00 +19°C° 0 mm 3 mps 769 mmHg 68%
    18:00 +17°C° 0 mm 3 mps 769 mmHg 72%
    19:00 +16°C° 0 mm 3 mps 769 mmHg 77%
    20:00 +13°C° 0 mm 3 mps 769 mmHg 81%
    21:00 +13°C° 0 mm 3 mps 769 mmHg 83%
    22:00 +12°C° 0 mm 3 mps 770 mmHg 84%
    23:00 +11°C° 0 mm 3 mps 770 mmHg 86%

    Tomorrow, 27 September, Wednesday

    Time Temperature Precipitation Wind Pressure Humidity
    00:00 +11°C° 0 mm 3 mps 770 mmHg 87%
    01:00 +10°C° 0 mm 3 mps 770 mmHg 88%
    02:00 +9°C° 0 mm 3 mps 770 mmHg 88%
    03:00 +9°C° 0 mm 3 mps 770 mmHg 89%
    04:00 +9°C° 0 mm 3 mps 770 mmHg 89%
    05:00 +8°C° 0 mm 3 mps 770 mmHg 89%
    06:00 +9°C° 0 mm 3 mps 771 mmHg 86%
    07:00 +10°C° 0 mm 3 mps 771 mmHg 83%
    08:00 +10°C° 0 mm 3 mps 771 mmHg 81%
    09:00 +12°C° 0 mm 4 mps 771 mmHg 75%
    10:00 +14°C° 0 mm 4 mps 771 mmHg 69%
    11:00 +15°C° 0 mm 4 mps 771 mmHg 63%
    12:00 +17°C° 0 mm 4 mps 771 mmHg 61%
    13:00 +18°C° 0 mm 4 mps 771 mmHg 59%
    14:00 +19°C° 0 mm 4 mps 771 mmHg 57%
    15:00 +18°C° 0 mm 4 mps 771 mmHg 61%
    16:00 +18°C° 0 mm 3 mps 771 mmHg 64%
    17:00 +17°C° 0 mm 3 mps 771 mmHg 68%
    18:00 +16°C° 0 mm 3 mps 771 mmHg 73%
    19:00 +13°C° 0 mm 3 mps 771 mmHg 78%
    20:00 +12°C° 0 mm 3 mps 771 mmHg 83%
    21:00 +11°C° 0 mm 3 mps 772 mmHg 85%
    22:00 +11°C° 0 mm 3 mps 772 mmHg 87%
    23:00 +10°C° 0 mm 3 mps 772 mmHg 89%

    Day after tomorrow, 28 September, Thursday

    Time Temperature Precipitation Wind Pressure Humidity
    00:00 +10°C° 0 mm 3 mps 772 mmHg 89%
    01:00 +9°C° 0 mm 2 mps 772 mmHg 90%
    02:00 +9°C° 0 mm 2 mps 772 mmHg 90%
    03:00 +9°C° 0 mm 2 mps 772 mmHg 90%
    04:00 +8°C° 0 mm 2 mps 772 mmHg 90%
    05:00 +8°C° 0 mm 2 mps 772 mmHg 90%
    06:00 +8°C° 0 mm 2 mps 772 mmHg 88%
    07:00 +9°C° 0 mm 2 mps 772 mmHg 85%
    08:00 +9°C° 0 mm 2 mps 772 mmHg 82%
    09:00 +11°C° 0 mm 3 mps 772 mmHg 76%
    10:00 +13°C° 0 mm 3 mps 772 mmHg 69%
    11:00 +16°C° 0 mm 3 mps 772 mmHg 62%
    12:00 +16°C° 0 mm 3 mps 772 mmHg 60%
    13:00 +17°C° 0 mm 3 mps 771 mmHg 58%
    14:00 +18°C° 0 mm 3 mps 771 mmHg 56%
    15:00 +17°C° 0 mm 3 mps 771 mmHg 59%
    16:00 +16°C° 0 mm 3 mps 771 mmHg 62%
    17:00 +16°C° 0 mm 2 mps 771 mmHg 66%
    18:00 +14°C° 0 mm 2 mps 771 mmHg 70%
    19:00 +13°C° 0 mm 2 mps 771 mmHg 74%
    20:00 +10°C° 0 mm 2 mps 771 mmHg 78%
    21:00 +10°C° 0 mm 2 mps 771 mmHg 79%
    22:00 +9°C° 0 mm 2 mps 771 mmHg 80%
    23:00 +9°C° 0 mm 2 mps 771 mmHg 81%

    29 September, Friday

    Time Temperature Precipitation Wind Pressure Humidity
    00:00 +9°C° 0 mm 2 mps 771 mmHg 81%
    01:00 +8°C° 0 mm 2 mps 771 mmHg 82%
    02:00 +8°C° 0 mm 2 mps 771 mmHg 82%
    03:00 +8°C° 0 mm 2 mps 771 mmHg 82%
    04:00 +8°C° 0 mm 2 mps 771 mmHg 82%
    05:00 +7°C° 0 mm 2 mps 771 mmHg 82%
    06:00 +8°C° 0 mm 2 mps 771 mmHg 80%
    07:00 +8°C° 0 mm 2 mps 771 mmHg 78%
    08:00 +9°C° 0 mm 2 mps 771 mmHg 75%
    09:00 +10°C° 0 mm 2 mps 771 mmHg 69%
    10:00 +13°C° 0 mm 2 mps 771 mmHg 62%
    11:00 +14°C° 0 mm 3 mps 771 mmHg 56%
    12:00 +14°C° 0 mm 3 mps 770 mmHg 55%
    13:00 +16°C° 0 mm 2 mps 770 mmHg 54%
    14:00 +16°C° 0 mm 2 mps 769 mmHg 53%
    15:00 +16°C° 0 mm 2 mps 769 mmHg 57%
    16:00 +15°C° 0 mm 2 mps 769 mmHg 61%
    17:00 +15°C° 0 mm 1 mps 768 mmHg 64%
    18:00 +13°C° 0 mm 1 mps 768 mmHg 70%
    19:00 +12°C° 0 mm 1 mps 768 mmHg 75%
    20:00 +10°C° 0 mm 1 mps 768 mmHg 80%
    21:00 +10°C° 0 mm 1 mps 768 mmHg 82%
    22:00 +10°C° 0 mm 1 mps 768 mmHg 84%
    23:00 +9°C° 0 mm 1 mps 768 mmHg 87%

    30 September, Saturday

    Time Temperature Precipitation Wind Pressure Humidity
    00:00 +9°C° 0 mm 1 mps 768 mmHg 87%
    01:00 +9°C° 0 mm 1 mps 768 mmHg 88%
    02:00 +8°C° 0 mm 1 mps 768 mmHg 89%
    03:00 +8°C° 0 mm 1 mps 767 mmHg 90%
    04:00 +8°C° 0 mm 1 mps 767 mmHg 92%
    05:00 +8°C° 0 mm 1 mps 767 mmHg 93%
    06:00 +9°C° 0 mm 1 mps 766 mmHg 92%
    07:00 +9°C° 0 mm 1 mps 766 mmHg 91%
    08:00 +10°C° 0 mm 1 mps 766 mmHg 90%
    09:00 +10°C° 0 mm 2 mps 766 mmHg 85%
    10:00 +13°C° 0 mm 2 mps 766 mmHg 80%
    11:00 +15°C° 0 mm 2 mps 766 mmHg 75%
    12:00 +15°C° 0 mm 2 mps 766 mmHg 73%
    13:00 +15°C° 0 mm 2 mps 765 mmHg 71%
    14:00 +16°C° 0 mm 3 mps 765 mmHg 70%
    15:00 +14°C° 0 mm 3 mps 765 mmHg 71%
    16:00 +14°C° 0 mm 3 mps 765 mmHg 72%
    17:00 +13°C° 0 mm 3 mps 765 mmHg 73%
    18:00 +13°C° 0 mm 3 mps 765 mmHg 74%
    19:00 +12°C° 0 mm 3 mps 766 mmHg 74%
    20:00 +11°C° 0 mm 3 mps 766 mmHg 74%
    21:00 +10°C° 0 mm 3 mps 766 mmHg 75%
    22:00 +10°C° 0 mm 2 mps 766 mmHg 77%
    23:00 +9°C° 0 mm 2 mps 766 mmHg 78%

    1 October, Sunday

    Time Temperature Precipitation Wind Pressure Humidity
    00:00 +8°C° 0 mm 2 mps 766 mmHg 81%
    01:00 +7°C° 0 mm 2 mps 766 mmHg 84%
    02:00 +7°C° 0 mm 2 mps 767 mmHg 88%
    03:00 +6°C° 0 mm 2 mps 767 mmHg 89%
    04:00 +6°C° 0 mm 2 mps 767 mmHg 91%
    05:00 +6°C° 0 mm 2 mps 767 mmHg 92%
    06:00 +6°C° 0 mm 2 mps 767 mmHg 90%
    07:00 +7°C° 0 mm 2 mps 767 mmHg 88%
    08:00 +7°C° 0 mm 2 mps 767 mmHg 86%
    09:00 +9°C° 0 mm 2 mps 767 mmHg 78%
    10:00 +12°C° 0 mm 2 mps 767 mmHg 71%
    11:00 +14°C° 0 mm 2 mps 767 mmHg 63%
    12:00 +14°C° 0 mm 2 mps 767 mmHg 60%
    13:00 +15°C° 0 mm 2 mps 766 mmHg 57%
    14:00 +16°C° 0 mm 2 mps 766 mmHg 53%
    15:00 +15°C° 0 mm 2 mps 766 mmHg 56%
    16:00 +14°C° 0 mm 2 mps 766 mmHg 59%
    17:00 +14°C° 0 mm 1 mps 766 mmHg 62%
    18:00 +13°C° 0 mm 1 mps 766 mmHg 63%
    19:00 +12°C° 0 mm 2 mps 766 mmHg 65%
    20:00 +10°C° 0 mm 2 mps 766 mmHg 66%
    21:00 +10°C° 0 mm 2 mps 766 mmHg 68%
    22:00 +9°C° 0 mm 2 mps 766 mmHg 70%
    23:00 +8°C° 0 mm 2 mps 766 mmHg 72%
    Show more